Regional Weather Roundup
Issued by NWS Jackson, KY

Home | Current Version | Previous Version | Text Only | Print | Product List | Glossary Off
Versions: 1 2 3 4 5 6 7 8 9 10 11 12 13 14 15 16 17 18 19 20 21 22 23 24 25 26 27 28 29 30 31 32 33 34 35 36 37 38 39 40 41 42 43 44 45 46 47 48 49 50

000
ASUS43 KJKL 310210
RWRJKL

EAST KENTUCKY HOURLY WEATHER ROUNDUP
NATIONAL WEATHER SERVICE JACKSON KY
1000 PM EDT THU JUL 30 2015

NOTE: "FAIR" INDICATES FEW OR NO CLOUDS BELOW 12,000 FEET WITH
NO SIGNIFICANT WEATHER AND/OR OBSTRUCTIONS TO VISIBILITY.

* THESE REPORTS ARE NOT UNDER NWS QUALITY CONTROL AND MAY NOT
  REPORT WEATHER SUCH AS PRECIPITATION AND FOG.

KYZ079-080-083-085-087-088-110-112-115-119-120-310300
...EASTERN KENTUCKY...

CITY           SKY/WX    TMP DP  RH WIND       PRES   REMARKS
JACKSON        CLEAR     75  58  55 N3        30.08R
LONDON         CLEAR     76  58  53 NW6       30.08R
SOMERSET*      PTCLDY    72  55  56 CALM      30.09R
MONTICELLO*    CLEAR     69  63  81 CALM      30.11R
WILLIAMSBURG*  CLEAR     72  63  73 CALM      30.09R
MIDDLESBORO*   CLEAR     72  65  81 NW5       30.08R
HAZARD APT*    CLEAR     72  61  68 NW3       30.08R
BLACK MTN*       N/A     64  59  82 VRB7        N/A
PIKEVILLE APT* CLEAR     73  59  60 NW6       30.08R
BIG SANDY*     CLEAR     75  60  59 NW3       30.07R
MOREHEAD APT*  CLEAR     75  61  60 CALM      30.08R
$$

KYZ035-036-041-042-044-050-067-078-099-310300
...CENTRAL KENTUCKY...

CITY           SKY/WX    TMP DP  RH WIND       PRES   REMARKS
MT STERLING*   CLEAR     68  64  88 CALM      30.08R
FLEMING/MASON* CLEAR     72  61  68 W5        30.07R
DANVILLE*      PTCLDY    70  61  73 CALM      30.09R
RICHMOND*      PTCLDY    72  61  68 CALM      30.08R
LEXINGTON      PTCLDY    73  60  63 CALM      30.08R
FRANKFORT      PTCLDY    70  63  78 CALM      30.06R
$$

KYZ091>093-OHZ055-061-077-WVZ005-015-034-035-042-310300
...SOUTHERN OHIO/WEST VIRGINIA...

CITY           SKY/WX    TMP DP  RH WIND       PRES   REMARKS
COVINGTON      PTCLDY    76  60  56 W3        30.05R
COLUMBUS       PTCLDY    74  59  59 W7        30.01R
DAYTON         CLEAR     73  60  63 W6        30.05R
WILMINGTON     CLEAR     74  57  55 NW6       30.04R
HUNTINGTON     CLEAR     74  59  59 CALM      30.03R
CHARLESTON     CLEAR     74  62  66 CALM      30.03R
PINEVILLE*     PTCLDY    66  66 100 MISG      30.13R
BECKLEY        PTCLDY    70  59  68 NW5       30.11R
BLUEFIELD      CLEAR     71  59  65 CALM      30.14R
$$

VAZ002-007-008-TNZ017-027-036-066-071-310300
...SOUTHWEST VIRGINIA/EAST TENNESSEE...

CITY           SKY/WX    TMP DP  RH WIND       PRES   REMARKS
WISE*          CLEAR     72  57  60 NW3       30.15R
ABINGDON*      CLEAR     76  61  60 CALM      30.09R
BRISTOL        PTCLDY    76  61  59 N5        30.06R
KNOXVILLE      CLOUDY    79  63  57 N10       30.03R
OAK RIDGE      CLEAR     76  66  71 CALM      30.05R
CROSSVILLE     CLEAR     73  61  65 N5        30.11R
NASHVILLE      PTCLDY    78  62  57 N6        30.07R
$$

...KEY TO REMARKS...
VSB - VISIBILITY IN MILES
WCI - WIND CHILL INDEX
HX  - HEAT INDEX

$$


USA.gov is the U.S. government's official web portal to all federal, state and local government web resources and services.